When you browse on this site, cookies collect data to enhance your experience and personalize the content and advertising you see.
Visit our Privacy Policy to learn more. By continuing to use the site, you agree to this use of cookies and data.
  • In Schweiz
  • Länderverzeichnis
  • Für 7 Tage
  • Wassertemperatur
  • Satellitenkarten
  • Wetterkarte
  • Widgets
  • user-avatar
    Anmelden

    Stündliche Wetter Kryuchok

    Heute, 17 Juni, Montag

    Zeit Temperatur Niederschläge Wind Luftdruck Luftfeuchtigkeit
    00:00 +15°C° 0 mm 1 m/S 746 mmHg 92%
    01:00 +15°C° 0 mm 1 m/S 746 mmHg 93%
    02:00 +15°C° 0 mm 1 m/S 747 mmHg 93%
    03:00 +14°C° 0 mm 1 m/S 747 mmHg 93%
    04:00 +15°C° 0 mm 1 m/S 747 mmHg 91%
    05:00 +15°C° 0 mm 1 m/S 747 mmHg 90%
    06:00 +15°C° 0 mm 0 m/S 747 mmHg 88%
    07:00 +16°C° 0 mm 0 m/S 747 mmHg 82%
    08:00 +18°C° 0 mm 0 m/S 747 mmHg 77%
    09:00 +19°C° 0 mm 0 m/S 747 mmHg 71%
    10:00 +22°C° 0 mm 1 m/S 747 mmHg 68%
    11:00 +23°C° 0 mm 1 m/S 747 mmHg 64%
    12:00 +24°C° 0 mm 2 m/S 747 mmHg 61%
    13:00 +24°C° 0.1 mm 2 m/S 747 mmHg 62%
    14:00 +24°C° 0.1 mm 3 m/S 747 mmHg 63%
    15:00 +25°C° 0.1 mm 3 m/S 746 mmHg 64%
    16:00 +25°C° 0.1 mm 3 m/S 746 mmHg 67%
    17:00 +24°C° 0.1 mm 3 m/S 746 mmHg 69%
    18:00 +24°C° 0.1 mm 2 m/S 746 mmHg 72%
    19:00 +23°C° 0 mm 2 m/S 746 mmHg 76%
    20:00 +20°C° 0 mm 2 m/S 746 mmHg 80%
    21:00 +20°C° 0 mm 1 m/S 746 mmHg 84%
    22:00 +19°C° 0 mm 1 m/S 746 mmHg 85%
    23:00 +18°C° 0 mm 2 m/S 746 mmHg 86%

    Morgen, 18 Juni, Dienstag

    Zeit Temperatur Niederschläge Wind Luftdruck Luftfeuchtigkeit
    00:00 +17°C° 0 mm 2 m/S 746 mmHg 87%
    01:00 +17°C° 0 mm 2 m/S 746 mmHg 88%
    02:00 +17°C° 0 mm 2 m/S 746 mmHg 89%
    03:00 +17°C° 0 mm 2 m/S 746 mmHg 91%
    04:00 +17°C° 0 mm 2 m/S 745 mmHg 90%
    05:00 +18°C° 0 mm 3 m/S 745 mmHg 89%
    06:00 +18°C° 0 mm 3 m/S 745 mmHg 88%
    07:00 +20°C° 0.2 mm 3 m/S 745 mmHg 85%
    08:00 +21°C° 0.2 mm 4 m/S 745 mmHg 82%
    09:00 +22°C° 0.2 mm 4 m/S 745 mmHg 79%
    10:00 +23°C° 0.6 mm 5 m/S 745 mmHg 80%
    11:00 +23°C° 0.6 mm 5 m/S 745 mmHg 81%
    12:00 +23°C° 0.6 mm 5 m/S 745 mmHg 82%
    13:00 +23°C° 0.1 mm 5 m/S 745 mmHg 83%
    14:00 +22°C° 0.1 mm 4 m/S 744 mmHg 84%
    15:00 +22°C° 0.1 mm 4 m/S 744 mmHg 86%
    16:00 +22°C° 0 mm 4 m/S 744 mmHg 85%
    17:00 +22°C° 0 mm 4 m/S 744 mmHg 84%
    18:00 +22°C° 0 mm 3 m/S 744 mmHg 84%
    19:00 +21°C° 0.1 mm 3 m/S 745 mmHg 86%
    20:00 +20°C° 0.1 mm 3 m/S 745 mmHg 89%
    21:00 +19°C° 0.1 mm 2 m/S 745 mmHg 91%
    22:00 +18°C° 0 mm 2 m/S 745 mmHg 91%
    23:00 +18°C° 0 mm 2 m/S 745 mmHg 90%

    übermorgen, 19 Juni, Mittwoch

    Zeit Temperatur Niederschläge Wind Luftdruck Luftfeuchtigkeit
    00:00 +17°C° 0 mm 3 m/S 746 mmHg 89%
    01:00 +17°C° 0 mm 3 m/S 746 mmHg 90%
    02:00 +16°C° 0 mm 3 m/S 746 mmHg 91%
    03:00 +16°C° 0 mm 3 m/S 746 mmHg 91%
    04:00 +16°C° 0 mm 3 m/S 746 mmHg 90%
    05:00 +16°C° 0 mm 3 m/S 746 mmHg 89%
    06:00 +17°C° 0 mm 3 m/S 747 mmHg 87%
    07:00 +18°C° 0 mm 3 m/S 747 mmHg 83%
    08:00 +20°C° 0 mm 3 m/S 747 mmHg 78%
    09:00 +21°C° 0 mm 3 m/S 747 mmHg 73%
    10:00 +22°C° 0 mm 3 m/S 747 mmHg 68%
    11:00 +24°C° 0 mm 3 m/S 748 mmHg 62%
    12:00 +25°C° 0 mm 3 m/S 748 mmHg 57%
    13:00 +26°C° 0 mm 3 m/S 748 mmHg 57%
    14:00 +26°C° 0 mm 3 m/S 748 mmHg 57%
    15:00 +26°C° 0 mm 3 m/S 748 mmHg 57%
    16:00 +26°C° 0 mm 3 m/S 748 mmHg 61%
    17:00 +26°C° 0 mm 3 m/S 748 mmHg 65%
    18:00 +26°C° 0 mm 2 m/S 748 mmHg 69%
    19:00 +24°C° 0 mm 2 m/S 748 mmHg 73%
    20:00 +21°C° 0 mm 2 m/S 748 mmHg 76%
    21:00 +20°C° 0 mm 1 m/S 748 mmHg 80%
    22:00 +20°C° 0 mm 1 m/S 748 mmHg 79%
    23:00 +19°C° 0 mm 1 m/S 748 mmHg 77%

    20 Juni, Donnerstag

    Zeit Temperatur Niederschläge Wind Luftdruck Luftfeuchtigkeit
    00:00 +18°C° 0 mm 1 m/S 748 mmHg 76%
    01:00 +18°C° 0 mm 1 m/S 748 mmHg 77%
    02:00 +18°C° 0 mm 1 m/S 748 mmHg 78%
    03:00 +16°C° 0 mm 1 m/S 749 mmHg 79%
    04:00 +18°C° 0 mm 1 m/S 749 mmHg 80%
    05:00 +19°C° 0 mm 1 m/S 749 mmHg 81%
    06:00 +19°C° 0 mm 1 m/S 749 mmHg 82%
    07:00 +21°C° 0 mm 1 m/S 750 mmHg 77%
    08:00 +22°C° 0 mm 1 m/S 750 mmHg 72%
    09:00 +24°C° 0 mm 1 m/S 750 mmHg 67%
    10:00 +25°C° 0 mm 1 m/S 750 mmHg 62%
    11:00 +26°C° 0 mm 1 m/S 750 mmHg 57%
    12:00 +27°C° 0 mm 2 m/S 750 mmHg 52%
    13:00 +27°C° 0 mm 1 m/S 750 mmHg 50%
    14:00 +27°C° 0 mm 1 m/S 750 mmHg 49%
    15:00 +28°C° 0 mm 1 m/S 749 mmHg 47%
    16:00 +28°C° 0 mm 1 m/S 749 mmHg 51%
    17:00 +28°C° 0 mm 1 m/S 749 mmHg 55%
    18:00 +27°C° 0 mm 1 m/S 749 mmHg 58%
    19:00 +25°C° 0 mm 1 m/S 749 mmHg 62%
    20:00 +23°C° 0 mm 1 m/S 749 mmHg 66%
    21:00 +21°C° 0 mm 1 m/S 749 mmHg 70%
    22:00 +21°C° 0 mm 1 m/S 750 mmHg 71%
    23:00 +20°C° 0 mm 1 m/S 750 mmHg 73%

    21 Juni, Freitag

    Zeit Temperatur Niederschläge Wind Luftdruck Luftfeuchtigkeit
    00:00 +20°C° 0 mm 1 m/S 750 mmHg 74%
    01:00 +19°C° 0 mm 1 m/S 750 mmHg 76%
    02:00 +19°C° 0 mm 1 m/S 750 mmHg 78%
    03:00 +18°C° 0 mm 1 m/S 750 mmHg 80%
    04:00 +19°C° 0 mm 1 m/S 750 mmHg 80%
    05:00 +18°C° 0 mm 0 m/S 750 mmHg 80%
    06:00 +19°C° 0 mm 0 m/S 751 mmHg 80%
    07:00 +20°C° 0 mm 0 m/S 751 mmHg 75%
    08:00 +22°C° 0 mm 0 m/S 751 mmHg 69%
    09:00 +23°C° 0 mm 0 m/S 751 mmHg 64%
    10:00 +26°C° 0 mm 1 m/S 751 mmHg 60%
    11:00 +27°C° 0 mm 1 m/S 751 mmHg 56%
    12:00 +27°C° 0 mm 1 m/S 751 mmHg 52%
    13:00 +28°C° 0 mm 1 m/S 751 mmHg 52%
    14:00 +28°C° 0 mm 2 m/S 750 mmHg 51%
    15:00 +28°C° 0 mm 2 m/S 750 mmHg 51%
    16:00 +28°C° 0 mm 2 m/S 750 mmHg 55%
    17:00 +28°C° 0 mm 2 m/S 750 mmHg 60%
    18:00 +27°C° 0 mm 2 m/S 750 mmHg 64%
    19:00 +26°C° 0 mm 2 m/S 750 mmHg 67%
    20:00 +24°C° 0 mm 2 m/S 750 mmHg 69%
    21:00 +21°C° 0 mm 2 m/S 750 mmHg 72%
    22:00 +21°C° 0 mm 2 m/S 750 mmHg 72%
    23:00 +21°C° 0 mm 1 m/S 750 mmHg 72%

    22 Juni, Samstag

    Zeit Temperatur Niederschläge Wind Luftdruck Luftfeuchtigkeit
    00:00 +21°C° 0 mm 1 m/S 750 mmHg 72%
    01:00 +20°C° 0 mm 1 m/S 750 mmHg 73%
    02:00 +20°C° 0 mm 1 m/S 750 mmHg 75%
    03:00 +19°C° 0 mm 1 m/S 750 mmHg 77%
    04:00 +20°C° 0 mm 1 m/S 750 mmHg 78%
    05:00 +21°C° 0 mm 1 m/S 750 mmHg 79%
    06:00 +21°C° 0 mm 1 m/S 750 mmHg 80%
    07:00 +23°C° 0 mm 1 m/S 750 mmHg 75%
    08:00 +24°C° 0 mm 1 m/S 751 mmHg 70%
    09:00 +26°C° 0 mm 1 m/S 751 mmHg 65%
    10:00 +27°C° 0 mm 1 m/S 751 mmHg 61%
    11:00 +27°C° 0 mm 2 m/S 750 mmHg 57%
    12:00 +28°C° 0 mm 2 m/S 750 mmHg 54%
    13:00 +28°C° 0 mm 2 m/S 750 mmHg 55%
    14:00 +28°C° 0 mm 2 m/S 750 mmHg 56%
    15:00 +29°C° 0 mm 2 m/S 750 mmHg 57%
    16:00 +28°C° 0 mm 2 m/S 750 mmHg 59%
    17:00 +28°C° 0 mm 2 m/S 749 mmHg 62%
    18:00 +28°C° 0 mm 2 m/S 749 mmHg 65%
    19:00 +26°C° 0 mm 1 m/S 749 mmHg 67%
    20:00 +25°C° 0 mm 1 m/S 749 mmHg 69%
    21:00 +23°C° 0 mm 1 m/S 749 mmHg 71%
    22:00 +22°C° 0 mm 1 m/S 749 mmHg 72%
    23:00 +22°C° 0 mm 1 m/S 750 mmHg 72%
    Mehr zeigen